Regional Weather Roundup
Issued by NWS Upton, NY

Home | Current Version | Previous Version | Text Only | Print | Product List | Glossary On
Versions: 1 2 3 4 5 6 7 8 9 10 11 12 13 14 15 16 17 18 19 20 21 22 23 24 25 26 27 28 29 30 31 32 33 34 35 36 37 38 39 40 41 42 43 44 45 46 47 48 49 50
000
ASUS41 KOKX 221905
RWROKX

REGIONAL WEATHER ROUNDUP
NATIONAL WEATHER SERVICE NEW YORK NY
300 PM EDT FRI AUG 22 2014

NOTE: "FAIR" INDICATES FEW OR NO CLOUDS BELOW 12,000 FEET WITH NO
SIGNIFICANT WEATHER AND/OR OBSTRUCTIONS TO VISIBILITY.

NYZ071-072-176-178-NJZ106-104-222000-
NEW YORK CITY METRO AREA


CITY           SKY/WX    TMP DP  RH WIND       PRES   REMARKS
CENTRAL PARK   CLOUDY    76  61  59 VRB7      30.04F
LAGUARDIA APRT PTSUNNY   76  64  66 NE14      30.01F
KENNEDY INTL   PTSUNNY   77  63  61 E12       30.02F
NEWARK/LIBERTY CLOUDY    75  63  66 S6        30.01F
BRNX BOT. GARD   N/A     75  63  64 NE3       30.02S
TETERBORO      CLOUDY    77  60  55 NE5       30.00F
$$

NYZ177-179-078>081-222000-
LONG ISLAND NEW YORK

CITY           SKY/WX    TMP DP  RH WIND       PRES   REMARKS
FARMINGDALE    CLOUDY    72  56  57 E10       30.03S
ISLIP          CLOUDY    73  56  54 E8        30.01S
SHIRLEY        CLOUDY    74  56  53 SE7       30.04S
WESTHAMPTON    CLOUDY    75  55  49 SE10G17   30.04F
MONTAUK POINT    N/A     71  61  70 NE7       30.06F
$$

NYZ052-065-067-222000-
HUDSON VALLEY

CITY           SKY/WX    TMP DP  RH WIND       PRES   REMARKS
WHITE PLAINS   MOSUNNY   74  59  59 E6G20     30.03F
NEWBURGH       PTSUNNY   70  63  78 VRB6      30.06
MONTGOMERY     CLOUDY    71  63  75 NE5       30.04F
POUGHKEEPSIE   CLOUDY    73  62  68 NW3       30.02F
ALBANY         RAIN      64  62  93 S3        30.07S FOG
$$

NJZ001-105-106-008-010-013-015-019>022-104-222000-
NEW JERSEY

CITY           SKY/WX    TMP DP  RH WIND       PRES   REMARKS
NEWARK/LIBERTY CLOUDY    75  63  66 S6        30.01F
TETERBORO      CLOUDY    77  60  55 NE5       30.00F
CALDWELL       CLOUDY    75  60  59 CALM      30.02F
MORRISTOWN     CLOUDY    73  64  73 E3        30.03F
SOMERVILLE     CLOUDY    74  64  71 VRB3      30.01S
LINDEN         CLOUDY    79  64  60 SE7       30.03F
SUSSEX         CLOUDY    74  63  68 NE6       30.03F
ANDOVER          N/A     70  63  78 S5        30.04S
TRENTON        CLOUDY    76  64  66 E7        30.01S
MILLVILLE      CLOUDY    75  67  76 E12       29.99S
ATLANTIC CITY  CLOUDY    76  66  71 E14       29.99F
WRIGHTSTOWN    PTSUNNY   74  65  75 E9        30.00S
TOMS RIVER     CLOUDY    73  63  68 NE5       30.02S
BELMAR         CLOUDY    72  61  68 NE7       30.03S
$$

PAZ047>061-062-071-222000-
EASTERN PENNSYLVANIA

CITY           SKY/WX    TMP DP  RH WIND       PRES   REMARKS
PHILADELPHIA   CLOUDY    78  67  68 E8        30.00S
ALLENTOWN      CLOUDY    76  65  68 E5        30.01F
SCRANTON       HVY RAIN  70  65  84 SE6       30.02S
$$

CTZ002-004>006-009-010-012-RIZ004-006-007-MAZ004-011-015-222000-
SOUTHERN NEW ENGLAND
 IN CT

CITY           SKY/WX    TMP DP  RH WIND       PRES   REMARKS
BRADLEY INTL   CLOUDY    70  61  73 NE10      30.07S
HARTFORD       CLOUDY    70  59  68 E7        30.06F
DANBURY        PTSUNNY   73  59  61 E7        30.05F
WTRBRY/OXFORD  CLOUDY    72  57  60 E7        30.08F
BRIDGEPORT     PTSUNNY   73  61  65 E13       30.04F
MERIDEN        CLOUDY    73  60  63 VRB5      30.05F
NEW HAVEN      CLOUDY    75  62  64 E12       30.04F
CHESTER        CLOUDY    70  63  78 NE8       30.07S
GROTON         CLOUDY    70  64  81 E12       30.04F
WILLIMANTIC    CLOUDY    71  60  68 VRB3      30.06F

 IN RI

CITY           SKY/WX    TMP DP  RH WIND       PRES   REMARKS
PROVIDENCE     PTSUNNY   73  63  70 NE10      30.06F
BLOCK ISLAND   MOSUNNY   70  63  78 NE10      30.05F
WESTERLY       CLOUDY    73  63  70 E10       30.05F

 IN MA

CITY           SKY/WX    TMP DP  RH WIND       PRES   REMARKS
BOSTON         CLOUDY    72  61  68 E13       30.09F
WORCESTER      PTSUNNY   68  60  75 NE9       30.10F
WESTFIELD      CLOUDY    67  62  84 N6        30.08F
PROVINCETOWN   PTSUNNY   70  63  78 MISG      30.09S
NANTUCKET      CLOUDY    66  60  81 NE10      30.06S
$$

ANZ330-335-338-340-345-350-353-355-222000-
COASTAL MARINE OBSERVATIONS


STATION/POSITION TIME  SKY/WX   TEMP    WIND        PRES    VSBY  WAVE
                                AIR SEA DIR/SP/G                  HT/PER
                 (UTC)          (F)     (DEG/KT/KT) (MB)    (MI)  (FT/S)
NY HARB ENTRANCE NOT AVBL
4S FIRE IS       NOT AVBL
23SW MTP         1900            69 71              1016.4          4/ 6
HUDSON CANYON    1900            71 73   50/ 14/ 16 1015.3          3/ 6
EXECUTION ROCKS  1900            72 74   70/ 16/ 19   N/A
WESTERN LI SOUND 1900            71      80/ 16/ 17   N/A           2/ 4
CENTRAL LI SOUND 1800            70 72   90/ 14/ 16   N/A           1/ 3
EASTERN LI SOUND 1800            70 69  120/ 14/ 17   N/A
ROBBINS REEF     1900            70     180/ 15/ 16   N/A
$$


>>>>>>>>>>>>>>>>>>>>>>>>>>>> KEY <<<<<<<<<<<<<<<<<<<<<<<<<<<
>                                                          <
>     SKY/WX - SKY CONDITION/PRESENT WEATHER               <
>     TMP    - TEMPERATURE IN FAHRENHEIT                   <
>     DP     - DEWPOINT IN FAHRENHEIT                      <
>     RH     - RELATIVE HUMIDITY IN PERCENT                <
>     WIND   - DIRECTION AND SPEED IN MPH                  <
>     PRES   - MEAN SEA LEVEL PRESSURE IN INCHES OF HG     <
>     WCI    - WIND CHILL INDEX                            <
>     VSB    - VISIBILITY IN MILES                         <
>     HX     - HEAT INDEX                                  <
>     TC     - TEMPERATURE IN CELSIUS                      <
>     VRB    - VARIABLE WIND DIRECTION                     <
>                                                          <
>>>>>>>>>>>>>>>>>>>>>>>>>>>> KEY <<<<<<<<<<<<<<<<<<<<<<<<<<<





USA.gov is the U.S. government's official web portal to all federal, state and local government web resources and services.